Ruidoso, NM

1:23 AM MST on November 18, 2019 (GMT -0700)
Sierra Blanca Regional

Weather History for KSRR - October, 2019

Change the Weather History Date:

Monday, October 21, 2019

  Actual Average Record
Temperature  
Mean Temperature 46 °F -  
Max Temperature 57 °F 61 °F 77 °F (2001)
Min Temperature 35 °F 40 °F 17 °F (1996)
Degree Days  
Heating Degree Days 19    
Moisture  
Dew Point 5 °F    
Average Humidity 18    
Maximum Humidity 23    
Minimum Humidity 13    
Precipitation  
Precipitation 0.00 in - - ()
Sea Level Pressure  
Sea Level Pressure 30.15 in    
Wind  
Wind Speed 9 mph ()    
Max Wind Speed 22 mph    
Max Gust Speed 33 mph    
Visibility 10.0 miles    
Events      
Averages and records for this station are not official NWS values.
T = Trace of Precipitation, MM = Missing Value Source: Averaged Metar Reports

Daily Weather History Graph

Daily Weather History Graph

Search for Another Location

Airport or City:

Astronomy

Oct. 21, 2019 Rise Set
Actual Time 7:11 AM MDT 6:21 PM MDT
Civil Twilight 6:46 AM MDT 6:46 PM MDT
Nautical Twilight 6:17 AM MDT 7:15 PM MDT
Astronomical Twilight 5:48 AM MDT 7:44 PM MDT
Moon No Moon Rise 2:21 PM MDT (10/21)
Length of Visible Light 12h 00m
Length of Day
11h 10m
Waning Gibbous, 47% of the Moon is Illuminated
Oct 21
Waning Gibbous
Oct 27
New
Nov 4
First Quarter
Nov 12
Full
Nov 19
Last Quarter

Hourly Weather History & Observations

Time (MDT) Temp. Windchill Dew Point Humidity Pressure Visibility Wind Dir Wind Speed Gust Speed Precip Events Conditions
12:15 AM 39.2 °F 32.0 °F 1.4 °F 21% 30.08 in 10.0 mi NW 11.5 mph - N/A   Clear
12:35 AM 41.0 °F 35.2 °F -0.4 °F 18% 30.08 in 10.0 mi NW 9.2 mph 16.1 mph N/A   Clear
12:55 AM 39.2 °F 35.0 °F -0.4 °F 19% 30.08 in 10.0 mi North 5.8 mph - N/A   Clear
1:15 AM 39.2 °F 35.9 °F -0.4 °F 19% 30.08 in 10.0 mi North 4.6 mph - N/A   Clear
1:35 AM 41.0 °F 39.0 °F -0.4 °F 18% 30.07 in 10.0 mi WNW 3.5 mph - N/A   Clear
1:55 AM 41.0 °F - -0.4 °F 18% 30.08 in 10.0 mi Calm Calm - N/A   Clear
2:15 AM 41.0 °F - -0.4 °F 18% 30.07 in 10.0 mi Calm Calm - N/A   Clear
2:35 AM 41.0 °F 35.2 °F -0.4 °F 18% 30.07 in 10.0 mi North 9.2 mph - N/A   Clear
2:55 AM 39.2 °F 33.6 °F 1.4 °F 21% 30.07 in 10.0 mi NNE 8.1 mph - N/A   Clear
3:15 AM 39.2 °F 33.6 °F -0.4 °F 19% 30.07 in 10.0 mi North 8.1 mph - N/A   Clear
3:35 AM 39.2 °F 32.5 °F -0.4 °F 19% 30.08 in 10.0 mi North 10.4 mph - N/A   Clear
3:55 AM 39.2 °F 32.5 °F -0.4 °F 19% 30.09 in 10.0 mi North 10.4 mph - N/A   Clear
4:15 AM 39.2 °F 33.6 °F -0.4 °F 19% 30.09 in 10.0 mi North 8.1 mph - N/A   Clear
4:35 AM 37.4 °F 34.9 °F -0.4 °F 20% 30.08 in 10.0 mi NNE 3.5 mph - N/A   Clear
4:55 AM 37.4 °F 32.8 °F -0.4 °F 20% 30.08 in 10.0 mi NE 5.8 mph - N/A   Clear
5:15 AM 35.6 °F 30.7 °F -0.4 °F 22% 30.08 in 10.0 mi NE 5.8 mph - N/A   Clear
5:35 AM 37.4 °F - -0.4 °F 20% 30.09 in 10.0 mi Calm Calm - N/A   Clear
5:55 AM 39.2 °F 37.0 °F -0.4 °F 19% 30.09 in 10.0 mi North 3.5 mph - N/A   Clear
6:15 AM 39.2 °F 35.0 °F -0.4 °F 19% 30.10 in 10.0 mi North 5.8 mph - N/A   Clear
6:35 AM 37.4 °F 32.1 °F -0.4 °F 20% 30.11 in 10.0 mi NNW 6.9 mph - N/A   Clear
6:55 AM 39.2 °F 33.0 °F -0.4 °F 19% 30.10 in 10.0 mi NNW 9.2 mph - N/A   Clear
7:15 AM 37.4 °F 31.4 °F -0.4 °F 20% 30.11 in 10.0 mi NNW 8.1 mph - N/A   Clear
7:35 AM 41.0 °F 33.9 °F -0.4 °F 18% 30.11 in 10.0 mi NW 12.7 mph 19.6 mph N/A   Clear
7:55 AM 41.0 °F 34.7 °F -0.4 °F 18% 30.12 in 10.0 mi WNW 10.4 mph 19.6 mph N/A   Clear
8:15 AM 42.8 °F 35.1 °F 1.4 °F 18% 30.13 in 10.0 mi NW 16.1 mph 28.8 mph N/A   Clear
8:35 AM 44.6 °F 39.2 °F 1.4 °F 17% 30.14 in 10.0 mi NW 10.4 mph - N/A   Clear
8:55 AM 46.4 °F 40.7 °F 1.4 °F 16% 30.15 in 10.0 mi NNW 12.7 mph 21.9 mph N/A   Clear
9:15 AM 46.4 °F 40.1 °F 3.2 °F 17% 30.17 in 10.0 mi NW 15.0 mph 27.6 mph N/A   Clear
9:35 AM 48.2 °F - 5.0 °F 17% 30.18 in 10.0 mi NW 11.5 mph 26.5 mph N/A   Clear
9:55 AM 48.2 °F - 5.0 °F 17% 30.17 in 10.0 mi NW 15.0 mph 33.4 mph N/A   Clear
10:15 AM 48.2 °F - 6.8 °F 19% 30.17 in 10.0 mi NW 19.6 mph 24.2 mph N/A   Clear
10:35 AM 50.0 °F - 6.8 °F 17% 30.17 in 10.0 mi NNW 16.1 mph 24.2 mph N/A   Clear
10:55 AM 50.0 °F - 6.8 °F 17% 30.17 in 10.0 mi NW 17.3 mph 27.6 mph N/A   Clear
11:15 AM 50.0 °F - 8.6 °F 19% 30.17 in 10.0 mi NNW 17.3 mph 27.6 mph N/A   Clear
11:35 AM 53.6 °F - 10.4 °F 18% 30.17 in 10.0 mi NW 13.8 mph 24.2 mph N/A   Clear
11:55 AM 53.6 °F - 10.4 °F 18% 30.17 in 10.0 mi NW 13.8 mph 24.2 mph N/A   Clear
12:15 PM 53.6 °F - 10.4 °F 18% 30.17 in 10.0 mi NW 17.3 mph 25.3 mph N/A   Clear
12:35 PM 53.6 °F - 12.2 °F 19% 30.17 in 10.0 mi WNW 21.9 mph 29.9 mph N/A   Clear
12:55 PM 53.6 °F - 10.4 °F 18% 30.16 in 10.0 mi NW 15.0 mph 33.4 mph N/A   Clear
1:15 PM 53.6 °F - 10.4 °F 18% 30.15 in 10.0 mi NW 20.7 mph 32.2 mph N/A   Clear
1:35 PM 55.4 °F - 8.6 °F 15% 30.14 in 10.0 mi NW 18.4 mph 29.9 mph N/A   Clear
1:55 PM 55.4 °F - 6.8 °F 14% 30.14 in 10.0 mi NW 17.3 mph 28.8 mph N/A   Clear
2:15 PM 55.4 °F - 6.8 °F 14% 30.12 in 10.0 mi NW 19.6 mph 32.2 mph N/A   Clear
2:35 PM 57.2 °F - 6.8 °F 13% 30.12 in 10.0 mi NW 19.6 mph 25.3 mph N/A   Clear
2:55 PM 57.2 °F - 6.8 °F 13% 30.12 in 10.0 mi WNW 15.0 mph 32.2 mph N/A   Clear
3:15 PM 57.2 °F - 6.8 °F 13% 30.12 in 10.0 mi WNW 19.6 mph 31.1 mph N/A   Clear
3:35 PM 57.2 °F - 6.8 °F 13% 30.12 in 10.0 mi NW 17.3 mph 27.6 mph N/A   Clear
3:55 PM 57.2 °F - 6.8 °F 13% 30.13 in 10.0 mi NW 15.0 mph 29.9 mph N/A   Clear
4:15 PM 57.2 °F - 6.8 °F 13% 30.14 in 10.0 mi NW 17.3 mph 28.8 mph N/A   Clear
4:35 PM 57.2 °F - 6.8 °F 13% 30.13 in 10.0 mi WNW 17.3 mph 28.8 mph N/A   Clear
4:55 PM 57.2 °F - 6.8 °F 13% 30.14 in 10.0 mi WNW 16.1 mph 26.5 mph N/A   Clear
5:15 PM 55.4 °F - 6.8 °F 14% 30.14 in 10.0 mi WNW 10.4 mph 29.9 mph N/A   Clear
5:35 PM 55.4 °F - 6.8 °F 14% 30.14 in 10.0 mi WNW 10.4 mph 20.7 mph N/A   Clear
5:55 PM 55.4 °F - 8.6 °F 15% 30.15 in 10.0 mi WNW 13.8 mph 20.7 mph N/A   Clear
6:15 PM 53.6 °F - 8.6 °F 16% 30.15 in 10.0 mi West 11.5 mph - N/A   Clear
6:35 PM 53.6 °F - 6.8 °F 15% 30.15 in 10.0 mi West 15.0 mph 18.4 mph N/A   Clear
6:55 PM 51.8 °F - 6.8 °F 16% 30.16 in 10.0 mi West 12.7 mph - N/A   Clear
7:15 PM 51.8 °F - 8.6 °F 18% 30.18 in 10.0 mi West 9.2 mph - N/A   Clear
7:35 PM 50.0 °F - 8.6 °F 19% 30.20 in 10.0 mi West 11.5 mph - N/A   Clear
7:55 PM 50.0 °F - 8.6 °F 19% 30.21 in 10.0 mi West 11.5 mph - N/A   Clear
8:15 PM 50.0 °F - 6.8 °F 17% 30.22 in 10.0 mi NW 13.8 mph 19.6 mph N/A   Clear
8:35 PM 50.0 °F - 6.8 °F 17% 30.23 in 10.0 mi NW 8.1 mph - N/A   Clear
8:55 PM 48.2 °F - 6.8 °F 19% 30.24 in 10.0 mi NW 4.6 mph - N/A   Clear
9:15 PM 46.4 °F 44.3 °F 6.8 °F 20% 30.25 in 10.0 mi NNW 4.6 mph - N/A   Clear
9:35 PM 46.4 °F 44.3 °F 6.8 °F 20% 30.25 in 10.0 mi NW 4.6 mph - N/A   Clear
9:55 PM 46.4 °F 44.3 °F 6.8 °F 20% 30.27 in 10.0 mi West 4.6 mph - N/A   Clear
10:15 PM 46.4 °F 42.4 °F 6.8 °F 20% 30.27 in 10.0 mi WNW 8.1 mph - N/A   Clear
10:35 PM 44.6 °F 40.7 °F 6.8 °F 21% 30.29 in 10.0 mi West 6.9 mph - N/A   Clear
10:55 PM 44.6 °F 41.4 °F 6.8 °F 21% 30.30 in 10.0 mi West 5.8 mph - N/A   Clear
11:15 PM 42.8 °F 37.5 °F 6.8 °F 23% 30.30 in 10.0 mi West 9.2 mph - N/A   Clear
11:55 PM 44.6 °F 40.2 °F 6.8 °F 21% 30.31 in 10.0 mi West 8.1 mph - N/A   Clear